Weather in Badar

Russia / Irkutsk Oblast     54°23′52″N   100°35′50″E
temp.,
°C
wind,
m/s
gust,
m/s
humid.,
%
clouds,
%
prec.,
mm/h
press.,
hPa
HPBL,
m
14 may, fri
fri1423:00+3ese11490 0.0 102010
02:00+1sse22550 0.0 102018
05:000sse22610 0.0 102014
08:00+5se36490 0.0 1019288
11:00+11sse56332 0.0 10161058
14:00+14sse45235 0.0 10131507
17:00+16sse341951 0.0 10111843
20:00+13se383698 0.0 1010193
15 may, sat
sat1523:00+8wnw354788 0.0 1012125
02:00+6nw5128296 0.0 1016859
05:00+4wnw5116735 0.4 1020901
08:00+6w51258100 0.4 10201293
11:00+10w71242100 0.0 10182144
14:00+11w71249100 0.0 10161838
17:00+10w51275100 0.8 10151313
20:00+10wnw71572100 1.3 10151269
16 may, sun
sun1623:00+10w51371100 0.0 1015829
02:00+10w61474100 0.1 1014854
05:00+10wsw51384100 1.3 1013953
08:00+9w31391100 3.6 1013861
11:00+10w41190100 4.7 1013799
14:00+10w41192100 5.6 1013808
17:00+10wnw2591100 0.3 1012244
20:00+10se1193100 0.4 101013
17 may, mon
mon1723:00+9se2399100 4.3 100682
02:00+8ssw2498100 8.4 1003123
05:00+6nnw41094100 0.8 1007593
08:00+5nw4994100 0.8 1011847
11:00+7nw477299 0.1 1012845
14:00+8wnw5870100 0.1 10121090
17:00+6nw3791100 0.0 1012640
20:00+7w2585100 0.0 1011385
18 may, tue
tue1823:00+6wnw1390100 0.1 1011125
02:00+6w4793100 0.8 1011691
05:00+5wnw3796100 0.6 1011832
08:00+6wnw4684100 0.8 1011674
11:00+6wnw3586100 0.3 1010649
14:00+7w2485100 1.3 1008748
17:00+6ssw2288100 1.7 1005595
20:00+5wsw2594100 3.3 1006336